Back to catalog

GEOTAIL

AliveScienceHEO
NORAD 22049·PAYLOAD·🇯🇵 Japan

Launched Jul 24, 1992 from Cape Canaveral Space Force Station

Loading…

Next Passes (next 24 hours)

TLE

AgingSource: Space-Track

Epoch: Sep 3, 2026, 02:11 UTC

1 22049U 92044A   26246.09134355 -.00000793  00000-0  00000-0 0  9996
2 22049  45.5136 340.2822 5647478 285.2595   2.0262  0.19146871 15916

Track GEOTAIL in real time with AllMySat

Download on the App Store